Wind_Speed
50 51 52 53 54 55 55 56 56 57 58 59 60 61 62 65 69 73 75 75 73 71 71 70 68 66 66 67 69 69 70 70 70 71 72 72 73 73 73 73 74 74 75 76 76 76 75 73 72 72 72 71 70 69 69 69 68 68 66 64 62 60 60 58 57 56 54 53 54 54 51 49 49 47
50 50 51 52 53 53 54 55 55 56 57 58 58 59 60 61 64 68 72 75 74 71 71 71 70 68 67 66 67 68 70 70 71 72 72 73 73 73 74 74 74 74 74 74 75 76 76 73 72 71 72 72 68 66 68 69 69 68 66 64 63 61 60 59 58 57 59 60 60 58 56 55 55 53
50 51 51 51 52 52 53 54 54 55 55 56 57 58 58 59 60 63 67 73 73 70 70 70 69 69 69 67 67 68 69 69 70 71 72 73 73 73 74 74 74 75 75 74 75 75 76 75 73 71 71 72 69 67 68 69 68 68 66 65 65 64 62 61 60 60 61 62 61 60 59 58 58 58
50 51 51 51 52 52 53 53 53 54 54 54 55 56 57 58 59 60 63 69 72 69 67 68 68 68 68 68 68 68 68 69 69 70 72 73 73 73 74 74 74 75 75 75 75 75 75 76 75 74 72 71 71 70 70 69 67 65 64 64 63 64 63 62 61 62 63 63 64 63 62 60 60 61
49 50 50 51 50 51 51 52 52 52 52 53 53 54 55 56 57 58 60 65 70 69 66 66 67 67 67 68 68 67 68 69 69 70 71 71 72 73 73 74 74 74 74 75 75 75 75 75 76 76 75 73 71 70 70 70 66 61 60 61 61 63 64 63 63 63 64 65 65 65 65 64 63 62
47 48 48 48 48 48 49 49 50 50 50 50 51 51 52 54 54 55 58 61 65 68 66 64 65 66 66 66 66 66 67 68 68 69 70 70 71 72 73 74 74 74 74 74 75 76 76 76 76 77 77 76 75 72 69 69 66 60 57 58 61 64 65 66 66 65 65 65 65 65 67 68 67 64
45 46 46 46 46 47 47 47 48 48 48 49 50 50 50 52 52 52 55 58 61 64 65 63 63 64 64 64 64 63 64 65 66 67 68 68 69 70 71 73 74 74 73 74 74 75 76 77 77 78 78 78 77 75 72 69 67 64 61 59 61 65 67 68 68 67 66 65 65 65 66 67 67 65
44 45 45 45 46 46 47 47 47 47 48 49 49 50 50 51 52 52 53 56 58 61 63 61 60 61 62 61 61 61 62 63 63 64 65 65 66 67 69 71 72 73 73 73 74 74 75 76 77 78 78 78 78 78 76 72 69 68 67 63 62 64 67 68 68 67 66 66 66 64 63 64 64 61
44 45 45 45 46 46 47 47 47 48 48 49 50 50 50 51 52 52 53 54 56 59 61 61 59 58 59 60 59 58 59 60 60 61 62 63 64 65 65 67 69 70 72 72 73 74 74 75 76 77 77 78 78 79 78 76 73 71 70 67 63 61 64 66 67 66 67 67 66 65 64 64 64 61
44 45 45 45 45 46 47 47 47 47 48 49 49 49 50 50 51 52 53 54 55 57 59 59 58 57 57 59 58 55 56 58 59 59 60 60 60 61 62 63 64 66 69 70 72 73 74 74 74 76 77 77 78 78 78 79 77 73 72 70 66 61 60 63 65 66 68 68 67 66 66 65 65 64
44 44 45 45 45 46 46 46 47 47 48 49 49 49 50 50 51 53 54 54 55 57 58 57 57 56 55 57 57 54 52 55 56 57 58 58 57 57 59 60 61 62 64 67 69 70 72 73 73 74 75 76 77 77 78 80 79 76 73 72 70 65 60 61 64 66 68 69 68 67 67 68 67 66
43 44 43 44 44 44 45 46 46 47 48 49 49 49 49 49 50 52 53 53 54 55 56 56 55 55 55 55 55 52 50 52 53 52 53 56 56 55 56 57 57 58 60 62 64 66 68 70 71 72 73 75 76 77 78 79 80 78 74 72 72 69 63 60 63 66 67 69 70 69 68 69 69 68
42 42 42 43 43 44 45 45 45 45 45 46 47 46 45 45 47 48 49 50 51 52 53 54 53 52 53 52 50 48 47 48 49 47 47 51 53 51 53 54 54 54 56 57 59 61 62 64 67 69 71 73 74 75 77 78 79 79 77 73 72 71 66 62 63 66 68 69 69 70 70 70 70 71
41 41 42 43 44 44 44 43 42 42 41 41 41 41 40 40 41 43 44 45 46 46 48 49 48 48 50 48 45 44 43 42 43 42 42 45 47 46 49 52 51 49 50 53 55 56 56 58 62 65 67 69 71 72 74 76 76 77 77 75 73 71 67 64 63 66 69 69 68 70 71 71 71 71
42 42 43 43 43 42 41 39 38 37 36 36 35 35 34 35 36 38 40 42 41 42 44 45 45 45 47 45 41 40 39 36 37 37 36 38 41 41 43 48 49 45 43 46 50 51 51 52 57 60 62 65 68 70 72 73 74 76 76 75 74 72 67 63 63 66 67 68 68 69 71 71 72 72
43 43 43 42 41 38 36 34 33 32 31 31 31 30 30 31 32 33 36 39 40 42 44 44 44 43 44 43 41 37 33 31 32 33 33 34 37 38 38 42 45 41 36 39 45 49 48 48 52 56 59 61 65 68 70 72 73 75 74 71 69 68 64 61 62 64 65 66 67 66 68 70 71 73
42 42 42 40 37 34 32 30 29 28 28 28 28 28 29 30 30 31 32 34 37 41 44 47 47 44 41 42 39 33 28 28 30 32 32 31 32 33 34 37 39 36 33 36 43 48 47 46 49 53 55 56 59 63 65 68 70 73 74 69 61 57 57 59 60 63 64 65 64 63 65 67 68 71
42 41 40 38 34 30 28 27 26 27 27 27 27 28 29 30 29 30 30 32 35 37 41 47 49 45 41 39 35 29 25 26 30 31 30 29 29 31 31 33 34 33 32 33 40 46 46 43 45 50 50 51 54 57 59 62 65 68 70 67 58 52 51 53 56 61 64 64 62 61 63 66 65 66
42 41 39 36 33 28 25 24 24 25 25 26 28 28 29 29 30 30 30 32 34 37 39 44 47 45 41 37 34 29 25 26 29 29 29 29 28 30 32 33 34 33 30 29 34 43 45 40 41 46 47 47 51 53 55 57 59 63 65 63 57 51 49 48 50 56 63 65 61 58 61 66 67 66
41 39 37 34 31 28 25 22 22 22 24 26 28 29 30 30 31 31 30 29 32 35 38 40 42 43 40 37 35 33 30 29 29 30 32 33 34 37 40 41 41 39 35 31 34 41 43 38 38 42 44 46 49 50 51 53 55 58 62 60 55 50 48 47 46 49 57 63 62 57 57 62 67 69
40 37 34 31 29 27 24 22 20 21 23 26 28 30 31 32 33 34 32 31 32 34 37 39 40 41 40 39 38 37 35 35 34 37 42 44 43 45 49 49 47 44 40 36 36 42 45 41 38 39 40 44 47 48 48 49 50 53 57 59 54 48 46 46 45 45 50 58 60 58 55 57 62 69
38 34 30 28 28 28 25 23 22 21 22 26 28 30 32 34 35 34 32 31 32 33 35 38 40 41 41 41 41 41 40 39 39 43 48 48 46 48 50 50 48 47 46 42 40 44 48 44 39 38 38 42 46 46 44 45 46 47 52 55 52 47 45 46 47 46 46 50 55 56 55 56 58 63
36 31 28 27 28 29 28 26 24 23 23 26 29 30 33 35 33 31 30 31 31 31 32 35 38 41 42 43 44 44 44 43 42 43 46 46 46 48 48 47 47 49 49 44 40 45 49 45 40 37 37 40 44 43 40 42 41 41 46 50 49 46 44 44 46 48 46 46 50 55 56 57 59 61
35 29 27 27 27 29 29 27 25 24 24 27 29 31 32 33 31 31 31 31 30 30 32 32 34 37 38 39 40 41 41 41 40 40 40 40 43 45 45 45 47 50 50 43 39 45 48 46 43 38 36 39 41 40 37 39 39 37 40 45 46 43 42 43 45 47 46 46 49 53 56 58 60 63
34 29 27 27 28 29 28 26 25 25 25 27 28 28 28 29 30 31 30 29 29 30 30 29 29 30 30 31 32 32 34 34 34 35 35 36 41 45 48 49 50 52 51 45 42 46 47 46 46 40 35 38 40 40 36 36 38 36 36 40 43 41 40 42 45 46 47 49 50 52 55 58 60 62
33 29 29 29 30 29 28 26 25 25 25 25 24 23 24 26 27 28 28 28 29 30 29 28 26 24 22 23 25 26 28 29 29 30 33 36 41 44 46 49 50 52 52 46 44 47 47 46 45 40 35 37 38 38 34 35 38 35 31 32 35 38 39 42 45 48 49 49 49 51 54 57 59 60
32 29 29 30 30 29 26 24 24 22 20 20 20 21 24 25 25 24 25 26 27 28 28 28 27 23 20 20 21 22 24 25 24 26 29 32 34 36 39 41 44 47 47 43 42 43 43 43 43 38 34 35 36 35 32 34 36 31 27 27 29 34 38 40 43 47 50 49 49 50 52 55 56 57
30 27 28 29 29 27 25 22 20 17 17 19 21 23 24 23 21 21 22 22 23 25 26 27 27 25 23 23 22 21 20 20 19 20 23 24 25 27 30 33 36 38 37 35 35 37 38 39 38 35 33 34 36 34 32 35 36 31 29 30 31 33 37 39 40 43 47 51 53 52 51 51 52 53
24 24 26 27 26 25 23 20 18 17 18 19 20 20 19 18 18 20 22 22 22 23 24 25 27 27 26 25 23 20 18 18 19 20 22 24 24 26 29 32 36 37 36 34 33 34 35 34 33 32 33 37 39 36 34 35 35 33 33 33 33 34 35 37 38 39 42 49 54 53 50 48 49 50
20 21 23 24 24 23 22 19 18 18 18 17 16 15 15 16 20 23 24 23 23 23 24 25 25 25 24 24 22 19 18 19 20 21 23 24 25 26 27 29 33 36 36 34 33 34 34 32 31 34 37 41 40 36 34 33 33 34 34 33 33 35 35 36 37 36 35 40 46 49 48 46 47 48
18 19 20 21 22 22 20 19 19 19 17 14 12 13 16 19 21 23 23 22 22 22 22 22 21 19 18 17 16 16 18 19 19 20 21 22 24 25 26 28 31 33 33 32 33 34 32 31 35 39 41 41 37 33 30 30 31 33 33 33 34 35 34 33 33 33 31 32 37 40 42 42 43 44
17 17 18 18 20 20 19 19 19 19 16 13 11 12 15 18 19 20 21 21 21 21 19 18 17 16 14 11 11 14 16 17 16 18 20 20 21 24 26 28 30 32 33 33 32 30 28 31 40 43 40 36 33 29 28 29 31 32 33 34 34 33 31 30 31 29 27 28 30 33 35 36 37 37
18 16 16 17 18 19 20 19 19 19 16 13 12 13 14 16 17 18 19 18 18 17 16 14 13 12 11 9 11 13 14 14 15 17 18 17 18 21 24 26 27 29 31 29 25 24 27 34 41 42 35 29 28 27 27 30 32 33 34 34 33 31 29 29 26 23 22 23 25 26 28 29 31 32
20 16 16 17 17 19 21 21 20 19 17 15 13 12 13 14 16 17 17 16 15 15 14 12 10 9 8 9 11 13 13 13 14 13 13 14 16 16 15 17 19 21 21 19 18 23 29 34 37 35 30 27 26 26 28 30 32 32 33 33 31 30 29 26 21 20 21 22 21 21 22 24 26 27
20 17 16 16 16 18 20 21 21 20 19 17 15 13 12 13 15 16 16 16 16 15 14 12 10 8 7 9 11 13 13 12 10 8 8 11 11 9 6 3 5 8 12 17 23 27 29 30 29 27 26 25 26 27 29 30 30 30 31 31 30 29 26 23 20 21 24 25 23 22 22 22 22 22
18 17 17 17 17 17 18 20 22 22 21 19 17 15 14 14 14 15 16 16 17 16 15 13 11 10 9 9 10 12 12 12 9 6 7 9 8 5 5 7 8 10 16 22 24 24 23 23 21 21 22 22 24 27 28 28 29 29 28 28 28 26 24 23 22 23 27 29 27 25 24 22 20 20
17 16 18 19 20 20 19 19 21 22 22 21 20 18 17 15 15 16 16 16 17 17 16 15 13 12 11 10 10 11 12 12 11 9 7 7 6 3 1 3 8 12 16 18 18 18 18 18 19 20 21 23 25 27 27 28 28 27 26 26 24 23 24 25 24 25 28 29 27 22 20 19 20 21
18 17 19 20 21 21 19 19 19 21 22 22 21 20 19 17 17 17 17 18 18 18 18 17 15 13 12 11 11 11 12 13 13 13 11 8 6 5 4 5 6 11 14 15 16 18 19 20 22 23 24 26 27 27 25 25 24 23 22 22 21 25 28 27 24 23 23 23 22 19 17 18 21 22
20 19 20 20 21 20 19 18 18 19 20 21 21 20 20 18 17 17 18 19 19 19 19 18 17 15 13 11 11 12 13 14 15 14 13 12 9 7 6 7 8 10 14 17 19 20 22 22 22 23 23 23 22 20 19 19 19 20 20 21 25 30 29 24 20 20 19 19 20 20 20 20 22 23
19 19 20 21 21 20 18 16 16 16 18 19 19 18 18 17 17 17 17 18 20 20 19 19 19 17 15 13 12 12 14 15 16 16 15 14 12 10 9 9 8 9 12 15 17 18 19 18 17 18 18 16 15 15 16 18 19 20 21 25 30 30 25 20 19 19 19 19 20 21 22 23 24 24
17 18 20 21 21 20 18 16 15 14 15 16 16 15 15 16 16 16 17 18 18 18 18 18 19 18 16 15 14 14 15 16 17 17 18 17 15 13 11 10 11 10 10 12 13 14 14 14 15 15 15 14 14 17 18 18 19 20 23 29 30 25 20 19 19 19 18 19 21 22 22 22 23 23
17 17 19 21 20 20 18 15 13 12 12 12 13 13 13 15 16 17 16 15 15 16 16 16 16 17 17 17 17 16 16 17 18 19 19 19 18 15 13 12 12 12 11 11 11 12 13 14 15 16 16 16 17 18 18 18 20 24 28 29 27 24 22 21 19 18 18 18 20 21 21 21 20 19
17 17 19 20 19 19 18 15 11 9 8 9 10 11 12 14 15 15 14 13 13 14 13 12 13 15 16 17 17 17 18 18 18 19 19 20 19 17 15 13 12 12 12 10 10 11 13 14 15 16 17 18 18 19 20 21 25 29 29 26 24 26 26 23 20 19 19 20 21 21 20 18 16 15
17 17 18 18 18 17 16 14 10 7 5 5 7 9 10 11 12 12 12 12 11 10 9 9 11 12 12 12 12 13 14 16 17 18 18 20 21 19 16 13 12 12 11 10 11 13 13 13 14 16 16 17 19 22 23 24 28 29 26 23 24 25 24 22 21 20 20 22 22 21 19 17 16 15
16 16 17 17 16 15 15 12 9 6 5 5 6 7 8 10 10 10 9 8 7 6 7 7 8 8 9 10 9 9 10 11 13 14 16 17 18 16 13 12 12 11 11 12 15 15 15 16 17 17 18 21 24 25 24 25 28 28 25 23 23 22 20 20 20 20 20 20 20 18 17 17 17 16
Wind_Direction
276 275 275 274 274 273 273 272 272 272 272 272 271 271 271 272 272 270 268 267 266 266 265 263 260 258 257 258 259 259 258 257 256 255 255 254 254 254 254 253 253 253 253 253 253 253 252 251 251 251 250 249 247 246 244 244 244 245 245 245 245 245 245 244 243 240 238 236 237 240 242 242 242 244
277 276 275 275 274 274 273 272 272 272 272 272 272 272 271 272 272 272 272 269 267 267 268 266 264 262 259 257 257 257 258 258 258 257 255 254 254 254 254 254 253 252 252 252 252 253 252 252 252 252 251 250 250 249 247 244 243 244 244 244 243 242 242 242 241 240 239 239 240 241 242 241 242 242
279 278 276 276 275 274 274 273 272 272 272 271 271 272 271 272 272 272 273 271 268 268 270 268 267 267 264 261 258 256 256 257 257 258 257 256 254 253 253 253 253 253 252 252 251 251 252 252 251 251 251 251 250 250 248 246 244 243 243 242 242 241 239 238 238 238 238 240 241 242 244 244 244 243
280 280 278 277 277 276 275 274 274 273 272 272 271 272 271 271 272 271 272 272 269 269 271 270 268 269 268 266 263 260 257 256 256 256 257 257 256 254 253 252 252 252 252 252 251 251 251 251 251 250 250 250 250 250 249 248 246 245 243 242 242 241 240 237 235 235 236 237 238 240 241 242 243 245
283 282 282 281 280 280 279 278 277 276 275 274 273 273 272 272 272 272 272 272 271 269 270 271 270 269 269 268 267 265 261 259 258 257 256 256 256 256 255 253 252 252 251 251 251 251 251 251 251 250 250 249 249 249 249 249 248 247 245 243 242 240 239 238 235 234 234 235 237 238 240 240 241 243
285 285 284 284 284 283 282 281 280 279 278 277 276 275 274 273 272 273 273 273 272 270 269 270 269 269 270 269 267 267 266 263 261 260 258 257 257 256 256 255 253 252 251 251 250 250 250 249 250 250 250 249 248 247 248 248 248 247 244 242 241 240 238 237 236 235 234 234 234 236 238 239 240 241
287 287 286 286 285 283 282 281 280 280 279 278 277 276 275 274 273 273 273 273 274 272 270 270 269 269 270 270 268 268 268 266 264 263 261 259 258 257 256 256 255 254 253 251 251 250 249 249 248 248 248 249 249 247 246 246 246 245 244 241 239 239 238 237 236 235 235 234 234 233 235 237 239 241
288 287 286 285 284 283 282 281 281 280 279 278 278 276 275 275 274 273 273 273 273 274 272 270 270 270 270 271 269 268 269 267 266 265 264 261 260 258 257 256 255 255 254 253 251 250 249 249 248 248 247 248 248 248 247 245 245 244 244 242 239 239 239 238 236 235 234 234 234 233 233 233 235 238
288 287 286 286 285 284 284 283 282 282 281 280 279 278 277 276 276 274 273 272 272 272 272 270 269 269 270 270 269 268 269 269 266 266 265 264 262 260 258 257 256 255 254 254 253 251 250 249 248 248 247 247 247 247 247 246 245 244 244 243 241 239 238 238 236 235 233 233 233 233 232 232 231 233
288 287 287 286 286 286 286 285 285 284 283 282 280 280 278 278 277 275 273 273 272 271 271 271 269 268 268 269 268 267 267 268 267 265 265 264 263 262 260 258 257 255 254 254 253 252 251 250 248 248 247 246 246 246 247 246 245 243 243 244 242 239 238 238 236 235 234 232 231 232 232 232 232 231
288 288 288 289 289 289 289 288 287 285 283 282 280 279 278 277 276 275 273 273 272 271 271 270 269 268 267 267 268 266 264 265 266 265 265 264 262 262 262 260 258 256 254 253 253 252 251 250 249 248 247 246 245 245 245 245 245 244 242 243 243 240 237 236 236 235 234 233 231 230 231 231 232 232
289 290 291 291 290 289 288 286 285 284 282 281 279 278 277 276 274 274 273 272 272 271 271 270 269 268 266 266 267 266 263 263 264 264 265 264 261 259 259 259 258 257 255 254 253 252 251 250 249 248 246 246 245 244 243 244 245 244 242 241 242 242 237 234 233 234 234 234 232 230 229 230 232 233
291 292 292 291 290 288 287 285 284 282 281 279 277 276 275 274 272 271 271 270 270 270 270 270 270 269 267 265 266 266 264 262 262 261 262 263 263 261 259 257 257 258 257 255 253 252 251 251 250 248 246 245 244 244 243 242 243 243 243 241 241 241 239 234 232 232 233 233 232 230 229 230 232 233
295 295 294 293 292 291 289 287 285 282 279 277 275 275 274 273 272 270 269 268 268 269 270 270 270 269 266 265 265 265 262 261 260 261 262 263 264 264 263 259 256 258 260 259 256 252 250 250 249 248 246 245 244 243 242 242 241 241 242 241 239 240 240 236 231 230 231 231 231 230 229 229 231 233
299 298 297 297 295 293 290 287 284 281 278 277 275 275 275 275 275 274 272 270 269 268 268 268 268 268 266 265 264 263 262 261 262 263 265 266 265 267 268 265 259 258 262 264 261 255 250 250 249 247 246 244 243 242 241 240 239 239 239 240 239 238 238 237 232 229 230 230 229 229 230 229 230 232
301 301 300 299 296 294 292 289 285 282 279 278 278 277 275 275 275 275 275 275 275 274 272 269 266 265 265 265 263 262 264 266 265 265 265 267 269 270 272 271 265 262 264 267 265 258 252 250 250 248 245 244 243 242 240 239 238 237 236 239 240 238 237 236 232 229 230 230 228 228 229 230 230 231
304 304 302 299 297 296 294 292 291 288 285 283 281 278 275 273 272 271 270 270 271 273 274 272 269 266 265 265 264 264 265 266 264 263 264 265 268 270 272 273 271 267 266 267 265 261 255 252 252 250 247 245 244 242 241 239 238 236 234 235 238 237 236 236 233 230 231 230 228 227 228 229 231 232
306 305 302 300 299 300 299 298 296 292 289 285 280 276 274 272 272 270 266 263 261 261 264 268 270 271 270 268 266 264 263 264 264 265 265 265 267 270 272 273 271 268 267 268 269 265 258 255 255 252 249 248 246 244 242 240 238 236 234 233 233 232 232 236 234 230 229 229 228 227 226 226 229 231
306 305 303 302 304 305 303 300 298 295 292 287 281 276 273 271 270 267 264 262 260 258 258 260 264 268 270 271 271 270 268 266 266 268 269 268 270 273 274 272 270 271 272 275 276 268 259 257 258 253 247 246 245 243 242 240 238 235 232 230 229 227 227 232 233 228 226 226 226 226 226 226 227 230
307 306 305 306 308 306 303 302 301 300 298 292 287 284 280 277 274 271 267 263 262 262 261 261 262 264 264 266 269 271 270 268 269 272 272 272 274 275 275 274 273 273 272 272 275 271 263 262 263 255 245 242 242 240 239 239 238 234 231 228 225 223 223 227 230 229 226 224 223 225 227 227 227 229
307 307 308 309 307 304 303 304 303 301 298 294 292 290 287 284 279 274 270 266 263 261 261 262 262 262 263 264 264 265 265 265 268 271 270 270 271 272 272 273 272 272 270 267 268 269 266 267 270 263 248 239 238 237 236 238 238 235 230 226 223 220 221 224 228 231 229 224 222 224 227 228 227 228
309 310 311 308 305 305 307 307 306 303 299 294 291 290 288 285 282 281 281 279 273 267 263 260 259 259 260 260 260 259 259 259 261 264 266 268 270 270 270 271 272 272 270 266 264 266 268 269 273 270 256 239 232 232 233 234 236 236 231 225 221 219 219 221 226 231 230 224 222 223 226 227 228 229
312 313 310 306 305 306 307 307 308 306 300 294 291 290 289 288 292 296 296 290 282 274 266 259 256 254 253 254 254 254 255 255 255 258 262 266 268 268 269 270 271 270 270 269 267 268 269 271 272 271 263 244 228 223 227 230 230 233 230 223 218 214 214 218 225 229 227 224 224 223 224 226 228 230
313 311 307 306 305 303 304 306 305 301 296 291 289 289 290 294 299 301 297 292 288 283 277 270 262 258 255 254 254 252 252 253 253 253 255 258 261 264 266 269 269 269 271 273 271 269 268 269 268 267 265 252 228 215 222 227 223 224 225 219 213 209 212 221 226 225 224 224 224 224 224 226 228 230
312 310 307 306 304 303 305 305 301 297 294 291 289 290 292 294 295 294 296 301 301 297 295 290 281 273 265 257 252 249 248 249 249 249 252 256 262 265 266 266 266 267 271 274 273 271 268 267 266 262 261 254 232 214 219 224 217 215 216 213 210 210 216 224 225 222 222 223 222 221 222 223 226 229
309 309 308 306 305 305 305 301 296 294 292 289 289 290 291 291 291 294 300 304 304 302 302 299 295 289 278 262 253 250 251 252 252 257 263 266 266 265 264 264 263 266 270 272 272 271 268 267 265 258 255 251 232 216 219 221 214 215 218 215 213 213 217 225 225 221 221 222 220 220 221 222 224 227
308 308 304 302 302 302 299 294 291 289 286 287 290 292 292 292 295 299 302 302 301 300 298 296 294 293 286 274 265 262 264 264 263 267 272 271 266 263 263 263 263 265 268 269 268 267 266 265 261 253 248 243 226 213 215 215 210 215 226 229 225 219 218 225 229 225 224 224 222 221 222 224 225 226
302 300 295 294 295 294 291 289 286 284 286 290 292 291 290 292 297 301 304 304 302 298 294 291 290 287 283 279 276 275 275 271 264 264 268 269 268 266 265 264 265 266 266 267 266 265 264 260 252 243 239 231 216 208 209 208 206 213 225 228 227 224 223 226 230 229 228 227 225 223 223 224 225 226
293 289 287 287 287 284 283 284 282 283 286 286 284 285 288 295 306 313 315 313 310 306 303 299 295 291 286 279 275 272 267 262 260 262 265 267 268 269 269 267 267 266 266 267 267 265 263 255 241 230 223 216 209 205 206 206 208 215 222 222 222 224 226 229 235 237 234 230 228 226 225 225 225 225
290 285 285 282 279 277 277 278 278 279 279 277 279 289 300 309 316 319 318 316 315 314 311 305 301 299 292 280 269 259 252 256 262 265 267 269 269 271 272 269 264 262 263 265 266 265 260 245 225 214 210 207 205 204 204 207 212 217 220 221 221 224 229 236 242 244 238 230 226 225 226 226 225 224
288 284 284 279 274 272 271 273 275 276 275 277 288 304 311 311 313 315 314 311 312 313 312 309 310 311 301 281 259 246 250 261 268 270 272 272 270 269 271 267 259 254 254 258 262 261 252 230 211 204 201 201 201 201 204 210 216 218 220 222 224 228 233 238 242 241 233 225 223 223 224 225 224 223
293 286 290 284 274 269 267 270 273 273 274 281 292 301 304 303 304 309 308 305 306 311 313 314 317 317 308 279 246 242 253 263 271 276 275 275 275 274 270 264 256 248 248 254 257 250 232 212 201 196 193 194 197 200 205 213 217 219 221 224 227 232 234 234 234 231 227 224 223 223 222 221 220 219
304 292 296 293 280 270 266 267 269 268 268 274 281 288 294 295 296 302 304 301 303 309 315 317 313 308 300 278 254 252 259 269 283 286 281 282 291 289 277 266 256 247 247 251 245 225 205 196 193 190 189 191 194 197 205 214 218 221 223 226 229 232 231 228 224 219 216 215 216 216 216 215 215 216
311 299 300 299 288 275 266 263 264 262 260 262 267 275 284 289 291 297 300 299 298 302 309 314 312 303 292 277 265 262 266 278 292 296 293 298 310 311 293 272 257 247 242 231 207 188 183 183 185 187 190 193 195 199 208 215 219 221 225 227 228 228 225 220 211 203 199 197 199 204 206 205 206 208
312 301 300 302 297 285 273 266 263 260 255 254 257 264 274 284 290 295 297 296 294 296 298 301 303 300 287 273 267 266 268 275 288 304 313 316 328 347 357 310 236 216 197 178 168 168 172 176 181 188 192 196 201 207 213 217 220 223 226 227 226 224 219 207 197 194 191 187 191 195 191 187 190 196
314 305 304 307 307 299 283 270 264 261 257 254 256 261 268 277 287 292 293 291 291 291 291 290 290 290 285 275 268 263 262 267 278 300 320 327 337 13 62 78 95 125 146 153 155 162 172 179 186 193 199 205 212 217 220 223 227 229 227 224 223 219 208 196 195 198 191 185 187 189 185 183 189 197
318 314 315 315 313 308 295 277 265 260 257 256 258 264 269 275 283 288 291 291 288 286 286 286 284 282 281 278 272 265 263 264 267 270 282 305 319 310 211 116 110 126 143 154 162 172 182 189 196 204 211 217 224 228 228 228 228 227 223 220 218 210 197 191 193 194 187 183 184 185 184 187 193 200
322 322 322 319 316 311 303 288 272 261 257 256 258 263 269 277 283 287 289 289 287 283 280 280 281 280 279 278 277 274 270 266 264 264 263 266 280 286 265 230 189 173 174 180 186 192 198 204 210 215 219 223 226 227 224 220 219 219 220 218 207 192 185 184 186 185 185 187 187 184 183 191 198 207
320 322 323 320 317 314 308 297 282 268 259 257 258 262 268 274 280 284 286 285 283 281 277 274 274 275 274 276 282 284 280 272 266 264 261 257 257 260 257 248 232 214 207 206 205 206 210 213 214 214 214 216 219 220 218 216 213 213 214 206 190 180 178 179 179 181 183 185 183 182 188 198 205 211
317 321 323 322 320 317 313 305 292 277 264 258 259 263 267 273 278 282 283 281 280 279 277 272 270 269 270 274 280 285 286 282 272 263 257 255 254 249 241 236 234 226 219 219 218 216 214 212 207 202 202 206 213 219 221 216 208 204 199 187 177 175 177 176 173 173 177 181 184 188 196 205 208 209
319 321 325 325 324 323 321 314 302 286 270 260 258 263 271 278 283 286 286 283 279 278 278 275 271 268 270 275 278 280 282 282 276 267 257 249 248 247 238 226 223 221 218 219 221 220 218 216 214 210 206 205 210 213 209 202 194 187 178 172 170 170 171 170 168 168 174 185 193 195 201 208 212 213
322 326 330 330 329 329 330 325 312 294 276 263 260 266 275 283 289 292 291 286 281 279 279 278 271 266 269 276 279 279 278 276 274 268 256 245 241 242 235 223 220 220 218 220 224 225 222 219 218 215 208 203 203 200 191 181 175 169 164 162 163 165 167 169 171 172 178 188 196 200 203 209 214 214
326 330 335 335 334 335 336 334 323 306 284 270 268 274 281 287 292 293 290 286 283 282 282 280 275 274 277 281 282 280 277 274 270 264 254 242 235 234 234 230 224 221 221 223 220 214 213 211 209 204 201 199 194 183 171 165 163 160 157 157 162 166 168 168 169 173 184 195 203 208 210 212 213 211
329 332 338 340 340 341 341 340 336 328 312 294 288 288 292 296 298 297 294 289 284 282 283 285 285 287 290 293 290 285 281 275 267 259 249 236 226 226 230 227 218 216 218 209 194 193 198 198 194 193 193 188 176 163 156 157 159 157 156 160 164 166 167 169 172 178 190 199 204 205 205 203 202 201
333 334 340 344 346 346 344 342 346 350 345 326 313 309 312 315 316 313 306 296 284 282 286 289 293 303 313 318 313 301 293 286 272 254 237 223 215 214 212 207 204 208 202 185 176 179 183 180 179 180 175 167 159 152 150 155 158 155 155 161 166 167 169 175 182 186 189 190 191 191 191 192 191 186
Height
2895 2894 2893 2892 2891 2890 2888 2888 2887 2885 2884 2883 2881 2880 2879 2876 2872 2872 2871 2872 2878 2880 2880 2884 2890 2895 2896 2896 2896 2896 2897 2900 2900 2901 2904 2905 2907 2910 2911 2912 2915 2917 2919 2920 2922 2925 2929 2932 2935 2936 2939 2943 2947 2950 2952 2956 2959 2962 2965 2969 2972 2973 2975 2978 2980 2983 2986 2987 2988 2990 2993 2995 2996 2997
2887 2886 2886 2884 2883 2882 2881 2880 2879 2878 2876 2875 2874 2872 2872 2870 2866 2864 2860 2859 2867 2870 2868 2870 2875 2880 2885 2887 2887 2887 2887 2889 2889 2889 2893 2895 2897 2899 2900 2902 2905 2907 2909 2911 2912 2915 2918 2921 2925 2927 2929 2933 2937 2939 2941 2945 2949 2952 2956 2959 2962 2964 2966 2969 2972 2974 2976 2977 2980 2982 2984 2986 2987 2990
2879 2878 2878 2876 2875 2875 2873 2872 2872 2870 2869 2868 2867 2865 2864 2863 2860 2859 2853 2847 2855 2862 2856 2859 2865 2865 2868 2873 2875 2878 2879 2879 2878 2878 2880 2883 2885 2887 2889 2892 2894 2896 2899 2901 2904 2905 2907 2910 2913 2916 2919 2922 2926 2928 2930 2935 2939 2942 2946 2949 2951 2954 2956 2959 2962 2965 2967 2969 2972 2974 2976 2979 2980 2982
2871 2870 2870 2868 2867 2866 2865 2864 2863 2862 2862 2861 2859 2858 2857 2856 2853 2852 2848 2839 2844 2852 2848 2848 2856 2854 2853 2857 2860 2865 2869 2868 2868 2869 2870 2871 2872 2874 2878 2882 2883 2885 2888 2891 2893 2896 2898 2900 2902 2905 2909 2912 2916 2918 2920 2925 2929 2932 2936 2938 2941 2943 2946 2949 2953 2955 2957 2960 2963 2965 2968 2971 2973 2974
2864 2862 2861 2860 2859 2858 2856 2856 2855 2854 2854 2852 2852 2851 2849 2849 2847 2844 2841 2835 2834 2841 2841 2841 2845 2845 2842 2844 2847 2850 2854 2857 2858 2859 2860 2861 2862 2863 2866 2869 2872 2875 2877 2880 2882 2885 2888 2890 2892 2895 2898 2901 2905 2908 2911 2915 2919 2923 2926 2929 2931 2933 2935 2939 2942 2944 2947 2950 2954 2957 2960 2962 2965 2966
2857 2855 2854 2853 2852 2850 2849 2848 2846 2845 2845 2844 2843 2843 2841 2840 2841 2838 2834 2830 2826 2830 2834 2834 2836 2836 2833 2833 2838 2838 2839 2844 2846 2846 2849 2852 2852 2853 2854 2856 2860 2863 2866 2869 2871 2874 2876 2879 2881 2883 2886 2889 2893 2898 2901 2905 2908 2912 2915 2918 2920 2922 2924 2927 2930 2934 2937 2941 2944 2947 2950 2954 2957 2959
2850 2848 2847 2846 2844 2843 2841 2841 2840 2838 2837 2836 2835 2835 2834 2832 2833 2832 2827 2824 2820 2820 2823 2826 2827 2828 2824 2824 2829 2829 2827 2832 2834 2833 2837 2841 2841 2843 2844 2845 2848 2852 2855 2857 2859 2862 2864 2867 2870 2872 2875 2878 2882 2886 2891 2894 2897 2899 2903 2907 2909 2911 2914 2917 2920 2924 2928 2930 2934 2937 2940 2944 2948 2951
2844 2842 2840 2839 2837 2836 2834 2833 2833 2831 2830 2829 2827 2827 2827 2824 2824 2824 2821 2818 2815 2812 2812 2817 2820 2820 2816 2815 2821 2821 2818 2821 2824 2822 2825 2829 2830 2833 2835 2835 2837 2840 2842 2844 2847 2850 2853 2856 2859 2862 2865 2868 2871 2874 2879 2883 2886 2889 2892 2896 2900 2902 2905 2908 2912 2916 2919 2921 2925 2929 2931 2935 2938 2942
2837 2835 2833 2832 2830 2829 2827 2826 2825 2824 2822 2821 2820 2818 2818 2817 2815 2815 2813 2811 2809 2805 2804 2807 2811 2812 2810 2807 2811 2814 2811 2810 2813 2813 2814 2817 2819 2822 2825 2826 2828 2830 2830 2832 2835 2838 2842 2845 2848 2851 2854 2857 2860 2863 2867 2871 2876 2879 2882 2886 2890 2894 2897 2900 2904 2907 2910 2913 2917 2920 2923 2926 2929 2932
2830 2828 2826 2825 2824 2822 2820 2819 2818 2817 2815 2813 2812 2811 2810 2809 2806 2805 2805 2803 2801 2799 2797 2799 2801 2804 2804 2799 2800 2807 2806 2800 2802 2805 2805 2806 2808 2810 2813 2815 2818 2819 2820 2821 2824 2827 2830 2833 2837 2840 2843 2846 2849 2853 2856 2859 2864 2868 2872 2876 2881 2886 2889 2891 2895 2898 2901 2904 2908 2911 2915 2917 2920 2923
2824 2822 2820 2819 2817 2815 2813 2812 2810 2809 2807 2804 2803 2803 2801 2800 2798 2796 2796 2794 2792 2791 2790 2791 2793 2795 2796 2792 2791 2798 2799 2793 2793 2797 2796 2796 2799 2801 2801 2803 2806 2809 2810 2812 2815 2816 2818 2821 2825 2828 2831 2834 2838 2842 2845 2847 2852 2857 2862 2866 2870 2876 2881 2883 2886 2889 2892 2895 2899 2903 2906 2909 2911 2914
2818 2816 2815 2812 2811 2809 2806 2805 2803 2801 2799 2797 2795 2795 2793 2791 2790 2788 2787 2786 2784 2783 2782 2782 2784 2785 2786 2785 2784 2788 2790 2787 2787 2790 2786 2784 2789 2793 2792 2792 2794 2798 2800 2803 2805 2806 2808 2810 2813 2816 2819 2823 2827 2831 2834 2837 2841 2846 2852 2856 2859 2865 2871 2875 2877 2880 2883 2886 2890 2894 2898 2901 2903 2906
2812 2810 2809 2806 2804 2802 2800 2798 2796 2794 2792 2789 2787 2787 2786 2784 2782 2780 2779 2778 2776 2775 2774 2774 2776 2776 2776 2777 2777 2778 2781 2781 2781 2782 2779 2777 2780 2783 2782 2783 2787 2790 2791 2792 2794 2797 2799 2800 2802 2804 2807 2811 2816 2820 2823 2827 2831 2836 2841 2846 2850 2855 2861 2866 2869 2872 2875 2878 2882 2885 2889 2892 2895 2898
2806 2804 2801 2799 2797 2794 2792 2790 2788 2786 2784 2782 2780 2780 2778 2777 2775 2773 2772 2771 2770 2769 2768 2768 2769 2767 2767 2770 2770 2770 2773 2774 2773 2773 2773 2772 2773 2774 2772 2775 2782 2784 2782 2781 2783 2788 2791 2791 2791 2794 2796 2800 2805 2808 2812 2817 2822 2826 2831 2836 2841 2845 2851 2856 2860 2863 2865 2869 2873 2876 2880 2883 2887 2889
2798 2796 2794 2792 2789 2787 2784 2782 2781 2779 2777 2776 2775 2774 2772 2771 2769 2766 2765 2764 2764 2763 2762 2761 2762 2760 2760 2763 2764 2763 2765 2767 2768 2768 2768 2767 2767 2767 2766 2767 2774 2779 2777 2773 2772 2776 2782 2782 2781 2784 2787 2790 2794 2797 2801 2806 2811 2816 2821 2825 2830 2836 2841 2846 2851 2854 2857 2860 2864 2868 2871 2874 2878 2880
2791 2789 2786 2784 2782 2779 2778 2776 2774 2773 2772 2771 2769 2768 2767 2765 2764 2762 2760 2759 2757 2756 2755 2754 2755 2754 2754 2755 2757 2759 2761 2763 2763 2763 2762 2762 2762 2762 2762 2761 2765 2772 2772 2766 2762 2765 2773 2775 2772 2774 2778 2781 2784 2787 2790 2795 2799 2804 2811 2815 2820 2826 2831 2836 2841 2846 2849 2852 2855 2859 2862 2866 2869 2871
2785 2782 2779 2776 2774 2774 2772 2770 2769 2767 2766 2765 2763 2762 2761 2759 2759 2758 2757 2756 2754 2751 2749 2746 2746 2748 2750 2750 2752 2756 2758 2758 2758 2757 2757 2759 2758 2757 2757 2757 2759 2763 2763 2759 2756 2757 2764 2768 2765 2765 2771 2774 2776 2778 2782 2786 2790 2794 2800 2805 2811 2817 2821 2826 2831 2836 2840 2843 2846 2850 2854 2857 2860 2862
2778 2775 2772 2769 2768 2768 2767 2765 2764 2761 2760 2758 2757 2756 2754 2753 2753 2752 2752 2751 2750 2748 2745 2741 2739 2742 2745 2745 2747 2752 2754 2753 2752 2752 2752 2754 2753 2752 2752 2752 2752 2755 2756 2755 2752 2749 2756 2762 2758 2758 2764 2768 2768 2771 2774 2777 2781 2785 2791 2796 2801 2806 2811 2816 2821 2825 2830 2834 2837 2840 2844 2847 2850 2852
2772 2769 2766 2764 2763 2762 2761 2760 2758 2756 2754 2752 2750 2750 2749 2748 2747 2746 2746 2745 2744 2743 2742 2739 2737 2737 2740 2741 2742 2745 2748 2747 2747 2747 2747 2748 2748 2747 2746 2745 2746 2748 2751 2753 2748 2743 2748 2754 2750 2750 2757 2759 2759 2762 2765 2768 2772 2776 2781 2786 2792 2797 2803 2807 2811 2815 2820 2824 2828 2832 2835 2838 2841 2843
2767 2764 2761 2759 2758 2757 2756 2756 2754 2752 2750 2747 2745 2743 2742 2742 2741 2740 2740 2740 2739 2738 2737 2735 2734 2734 2735 2737 2738 2740 2742 2742 2742 2743 2741 2741 2742 2740 2738 2737 2739 2742 2745 2748 2745 2738 2739 2744 2743 2743 2747 2749 2749 2753 2756 2759 2763 2767 2772 2777 2783 2789 2794 2799 2804 2807 2811 2815 2819 2823 2826 2829 2832 2834
2762 2760 2758 2755 2753 2752 2751 2751 2750 2749 2746 2743 2741 2739 2737 2736 2735 2733 2734 2735 2734 2733 2732 2731 2731 2731 2732 2733 2734 2736 2737 2737 2738 2737 2733 2733 2736 2734 2731 2730 2731 2735 2738 2741 2741 2734 2731 2736 2738 2737 2739 2741 2742 2745 2749 2753 2757 2761 2765 2770 2776 2781 2787 2792 2797 2800 2802 2806 2811 2815 2818 2820 2823 2825
2757 2755 2754 2751 2749 2747 2747 2746 2745 2744 2743 2740 2737 2735 2733 2731 2729 2729 2730 2730 2729 2728 2728 2727 2727 2727 2727 2728 2728 2729 2730 2731 2733 2731 2726 2727 2729 2727 2724 2724 2726 2727 2728 2733 2736 2730 2725 2730 2734 2733 2733 2734 2735 2740 2745 2749 2752 2755 2760 2765 2769 2774 2780 2785 2789 2792 2794 2798 2803 2806 2809 2812 2814 2816
2753 2751 2749 2748 2745 2743 2742 2741 2740 2740 2739 2736 2734 2731 2728 2726 2724 2725 2725 2723 2721 2721 2720 2719 2719 2719 2720 2721 2721 2721 2722 2724 2725 2724 2722 2722 2722 2719 2718 2720 2720 2718 2718 2725 2731 2726 2721 2726 2730 2730 2729 2727 2730 2737 2741 2744 2748 2751 2755 2760 2764 2768 2773 2778 2782 2784 2788 2792 2795 2797 2801 2804 2806 2809
2748 2747 2745 2744 2742 2740 2738 2737 2736 2736 2735 2733 2730 2728 2725 2722 2721 2721 2719 2716 2715 2714 2712 2712 2712 2712 2713 2714 2714 2715 2716 2717 2718 2719 2718 2718 2716 2714 2714 2714 2714 2710 2710 2719 2724 2720 2718 2721 2724 2726 2726 2723 2726 2734 2737 2740 2744 2747 2750 2754 2758 2763 2767 2772 2774 2778 2781 2784 2786 2789 2793 2796 2799 2801
2743 2742 2741 2739 2738 2736 2734 2733 2732 2731 2730 2729 2726 2724 2722 2720 2719 2716 2713 2711 2710 2709 2707 2707 2706 2706 2707 2708 2708 2709 2710 2711 2712 2713 2714 2713 2712 2710 2708 2708 2707 2704 2705 2712 2716 2713 2713 2715 2717 2721 2722 2720 2722 2729 2733 2735 2739 2743 2746 2749 2753 2757 2761 2765 2768 2772 2774 2776 2778 2781 2784 2788 2791 2794
2738 2737 2736 2734 2733 2731 2730 2729 2728 2727 2726 2724 2723 2721 2720 2718 2716 2713 2711 2709 2707 2705 2704 2703 2702 2701 2702 2703 2704 2705 2706 2706 2707 2708 2708 2708 2706 2704 2702 2702 2701 2699 2700 2706 2709 2706 2705 2708 2711 2715 2717 2716 2719 2725 2728 2732 2736 2740 2742 2745 2748 2752 2755 2758 2762 2764 2767 2769 2772 2775 2778 2781 2785 2789
2735 2734 2732 2730 2729 2728 2726 2726 2725 2724 2722 2721 2720 2718 2717 2715 2713 2711 2709 2707 2705 2703 2701 2700 2698 2698 2699 2699 2700 2701 2701 2701 2702 2702 2701 2700 2699 2697 2696 2696 2696 2694 2695 2699 2700 2699 2699 2701 2704 2708 2711 2712 2716 2720 2723 2726 2731 2735 2738 2741 2744 2747 2749 2753 2756 2758 2761 2764 2767 2770 2773 2776 2779 2784
2732 2730 2729 2727 2726 2724 2723 2722 2722 2721 2719 2718 2717 2715 2714 2712 2711 2709 2707 2704 2702 2700 2698 2697 2696 2695 2695 2696 2696 2696 2696 2696 2696 2696 2695 2694 2694 2693 2692 2691 2690 2689 2690 2691 2691 2691 2693 2694 2697 2701 2705 2708 2712 2716 2718 2721 2725 2728 2731 2735 2739 2741 2744 2748 2750 2753 2756 2758 2760 2764 2766 2770 2774 2778
2728 2727 2725 2724 2723 2721 2720 2720 2719 2718 2717 2716 2714 2713 2711 2709 2707 2705 2703 2701 2699 2697 2695 2694 2692 2691 2691 2691 2691 2691 2691 2691 2691 2690 2690 2690 2690 2689 2688 2686 2685 2683 2684 2684 2685 2685 2686 2687 2691 2696 2699 2703 2707 2711 2715 2718 2721 2723 2726 2730 2734 2737 2741 2743 2746 2748 2750 2752 2754 2758 2761 2765 2769 2773
2725 2723 2722 2720 2719 2718 2717 2716 2715 2715 2714 2713 2712 2710 2708 2706 2704 2702 2700 2698 2696 2695 2693 2691 2689 2687 2686 2685 2685 2686 2687 2687 2687 2686 2686 2686 2686 2685 2683 2681 2679 2678 2678 2679 2679 2679 2680 2682 2687 2691 2694 2698 2703 2708 2712 2715 2718 2721 2724 2728 2731 2734 2737 2739 2741 2743 2745 2747 2750 2754 2757 2760 2764 2767
2721 2720 2719 2717 2716 2715 2714 2713 2712 2711 2711 2710 2708 2707 2705 2703 2702 2700 2698 2697 2695 2693 2691 2689 2687 2684 2682 2681 2682 2683 2684 2684 2684 2684 2683 2682 2681 2680 2678 2675 2673 2673 2673 2674 2674 2673 2674 2678 2683 2687 2690 2695 2700 2706 2710 2714 2716 2720 2723 2726 2728 2731 2734 2736 2738 2739 2741 2744 2746 2749 2752 2755 2759 2762
2718 2716 2715 2713 2712 2711 2711 2710 2710 2709 2708 2707 2706 2704 2703 2702 2701 2699 2697 2696 2694 2692 2690 2687 2685 2683 2681 2680 2681 2681 2682 2682 2681 2680 2679 2678 2676 2675 2672 2669 2668 2668 2669 2669 2668 2668 2669 2674 2680 2685 2689 2694 2700 2705 2709 2711 2714 2718 2721 2724 2725 2728 2731 2733 2734 2736 2738 2740 2743 2745 2748 2751 2754 2758
2714 2713 2712 2710 2709 2708 2708 2707 2707 2706 2705 2704 2703 2702 2701 2700 2699 2697 2696 2694 2693 2691 2689 2687 2685 2683 2682 2681 2681 2681 2681 2680 2679 2677 2676 2674 2673 2670 2666 2664 2663 2664 2664 2664 2664 2664 2667 2673 2680 2686 2691 2695 2699 2703 2706 2708 2711 2715 2719 2721 2723 2725 2728 2730 2731 2733 2735 2737 2739 2742 2745 2748 2751 2754
2711 2710 2709 2707 2706 2705 2704 2704 2703 2703 2702 2702 2701 2700 2699 2697 2696 2695 2694 2692 2691 2690 2688 2686 2684 2682 2681 2681 2680 2680 2679 2678 2677 2675 2673 2672 2670 2667 2663 2660 2660 2661 2661 2661 2662 2664 2669 2676 2682 2688 2692 2695 2698 2700 2702 2705 2709 2713 2716 2718 2720 2722 2724 2727 2728 2730 2732 2734 2738 2741 2743 2745 2749 2752
2708 2707 2706 2704 2703 2701 2700 2700 2700 2699 2699 2699 2698 2697 2696 2695 2694 2692 2691 2690 2689 2688 2687 2685 2684 2682 2680 2679 2679 2679 2678 2677 2675 2673 2672 2671 2669 2666 2663 2660 2660 2660 2660 2661 2664 2668 2674 2680 2684 2688 2691 2693 2695 2698 2700 2704 2707 2710 2713 2715 2717 2719 2722 2724 2726 2728 2730 2732 2736 2739 2741 2743 2746 2749
2705 2704 2703 2701 2700 2698 2697 2696 2696 2696 2695 2695 2695 2694 2694 2693 2691 2690 2689 2688 2687 2686 2685 2684 2683 2681 2680 2678 2677 2677 2676 2675 2674 2673 2672 2671 2670 2668 2666 2664 2663 2663 2664 2666 2670 2674 2678 2682 2685 2687 2690 2692 2694 2696 2699 2703 2706 2708 2710 2712 2715 2717 2720 2721 2723 2726 2728 2730 2733 2736 2739 2742 2745 2748
2703 2701 2700 2698 2696 2695 2693 2692 2692 2692 2692 2692 2692 2691 2691 2690 2689 2688 2686 2685 2685 2684 2683 2682 2681 2680 2678 2677 2676 2675 2674 2673 2673 2672 2671 2671 2670 2669 2668 2668 2667 2668 2669 2671 2674 2677 2680 2682 2684 2687 2689 2691 2693 2695 2698 2701 2703 2705 2708 2710 2712 2715 2717 2719 2721 2724 2726 2729 2732 2735 2738 2741 2744 2746
2701 2699 2697 2695 2694 2692 2690 2689 2688 2688 2688 2688 2688 2688 2688 2687 2686 2685 2684 2683 2682 2681 2680 2680 2679 2678 2677 2675 2674 2673 2673 2672 2671 2671 2670 2670 2670 2669 2669 2670 2670 2671 2673 2674 2676 2678 2680 2682 2684 2686 2688 2690 2692 2695 2698 2700 2702 2704 2707 2708 2710 2712 2715 2717 2720 2723 2726 2729 2732 2735 2738 2742 2744 2746
2698 2696 2695 2693 2691 2689 2687 2686 2684 2684 2684 2684 2684 2685 2685 2684 2683 2682 2682 2681 2680 2679 2678 2677 2676 2676 2675 2674 2673 2672 2671 2670 2670 2669 2669 2669 2669 2669 2669 2670 2671 2672 2673 2674 2676 2678 2679 2681 2683 2685 2687 2690 2692 2694 2696 2698 2700 2702 2703 2705 2708 2711 2714 2717 2720 2723 2725 2728 2731 2734 2737 2740 2742 2744
2696 2694 2693 2691 2689 2686 2684 2683 2681 2680 2680 2680 2681 2681 2681 2681 2680 2680 2679 2678 2677 2676 2675 2675 2674 2673 2673 2672 2671 2670 2670 2669 2668 2668 2667 2667 2667 2668 2669 2669 2670 2671 2672 2673 2675 2676 2678 2680 2682 2684 2686 2688 2690 2691 2693 2694 2696 2698 2700 2703 2707 2710 2714 2717 2720 2722 2725 2728 2731 2734 2736 2738 2740 2742
2695 2693 2691 2689 2686 2684 2682 2680 2679 2678 2677 2677 2678 2678 2678 2678 2677 2677 2676 2675 2674 2673 2673 2672 2671 2671 2670 2670 2669 2668 2668 2667 2666 2666 2666 2666 2666 2666 2668 2668 2669 2670 2671 2672 2673 2675 2676 2678 2680 2681 2683 2685 2687 2688 2690 2692 2694 2697 2700 2703 2707 2711 2714 2716 2719 2722 2725 2728 2731 2733 2735 2737 2739 2741
2694 2692 2689 2687 2684 2682 2679 2678 2676 2675 2675 2675 2675 2676 2676 2676 2675 2674 2673 2672 2671 2671 2670 2669 2669 2669 2668 2667 2667 2666 2665 2665 2664 2664 2663 2664 2664 2665 2666 2667 2668 2669 2670 2671 2672 2673 2675 2676 2677 2679 2681 2683 2685 2687 2689 2692 2694 2697 2700 2704 2708 2711 2714 2717 2719 2722 2725 2728 2731 2733 2735 2737 2738 2740
2692 2690 2687 2685 2682 2680 2678 2676 2675 2674 2673 2673 2674 2674 2674 2673 2672 2671 2670 2670 2669 2668 2668 2667 2667 2667 2666 2665 2664 2663 2662 2662 2661 2661 2661 2661 2662 2663 2664 2666 2667 2668 2669 2670 2671 2672 2673 2675 2676 2678 2680 2682 2684 2687 2690 2692 2695 2698 2702 2705 2708 2711 2714 2717 2719 2722 2725 2728 2730 2732 2734 2736 2738 2739
2690 2688 2686 2684 2681 2679 2677 2675 2674 2673 2672 2672 2672 2672 2672 2671 2670 2669 2668 2668 2667 2667 2666 2666 2666 2665 2664 2663 2661 2660 2659 2658 2658 2658 2658 2659 2660 2661 2663 2665 2666 2666 2668 2669 2670 2671 2672 2674 2676 2678 2680 2683 2685 2688 2691 2693 2696 2699 2703 2706 2708 2711 2714 2717 2720 2722 2725 2727 2729 2731 2733 2735 2737 2738
2689 2687 2685 2683 2681 2679 2677 2675 2674 2673 2672 2672 2672 2671 2670 2669 2669 2668 2667 2667 2666 2666 2666 2665 2665 2664 2662 2661 2660 2659 2658 2656 2656 2655 2656 2657 2658 2660 2662 2664 2665 2666 2667 2669 2670 2671 2673 2674 2676 2678 2681 2684 2687 2689 2692 2695 2698 2701 2703 2706 2709 2713 2716 2718 2720 2722 2724 2726 2729 2730 2732 2734 2736 2737